FW8839 Weather Reports


time (UTC)temp
C
wind
direction
speed
KPH
gust
KPH
rain 1hr
cm
rain 24hr
cm
rain mn
cm
humidity
%
barometer
mb
20260505094057 17 0 1.6 11.3 0.00 0.00 0.00 70 1007.3
20260505093557 17 216 3.2 14.5 0.00 0.00 0.00 70 1007.3
20260505093102 17 200 4.8 19.3 0.00 0.00 0.00 70 1007.3
20260505092557 17 229 8.0 19.3 0.00 0.00 0.00 69 1007.2
20260505092059 17 219 6.4 16.1 0.00 0.00 0.00 68 1007.3
20260505091554 17 209 4.8 17.7 0.00 0.00 0.00 68 1007.3
20260505091057 17 212 8.0 17.7 0.00 0.00 0.00 69 1007.3
20260505090555 17 207 4.8 12.9 0.00 0.00 0.00 70 1007.2
20260505090054 16 209 3.2 12.9 0.00 0.00 0.00 71 1007.1
20260505085558 16 234 4.8 12.9 0.00 0.00 0.00 71 1007.1
20260505085058 16 196 4.8 16.1 0.00 0.00 0.00 71 1007.2
20260505084556 16 264 6.4 16.1 0.00 0.00 0.00 71 1006.9
20260505084057 16 238 4.8 14.5 0.00 0.00 0.00 70 1007.0
20260505083556 16 230 6.4 14.5 0.00 0.00 0.00 70 1007.0
20260505083103 16 173 6.4 14.5 0.00 0.00 0.00 70 1006.7
20260505082557 16 192 6.4 14.5 0.00 0.00 0.00 70 1006.9
20260505082057 16 233 3.2 11.3 0.00 0.00 0.00 71 1006.9
20260505081558 16 227 3.2 12.9 0.00 0.00 0.00 71 1007.1
20260505081057 16 255 3.2 12.9 0.00 0.00 0.00 72 1007.0
20260505080556 16 0 3.2 11.3 0.00 0.00 0.00 72 1007.1
20260505080111 16 0 3.2 9.7 0.00 0.00 0.00 72 1007.2
20260505075557 16 205 1.6 9.7 0.00 0.00 0.00 72 1007.2
20260505075059 16 216 3.2 11.3 0.00 0.00 0.00 71 1007.1
20260505074559 16 219 3.2 14.5 0.00 0.00 0.00 71 1007.1
20260505074057 16 240 3.2 16.1 0.00 0.00 0.00 71 1006.9
20260505073557 16 193 4.8 16.1 0.00 0.00 0.00 71 1006.9
20260505073107 16 209 3.2 17.7 0.00 0.00 0.00 71 1007.0
20260505072557 16 229 4.8 17.7 0.00 0.00 0.00 71 1007.0
20260505072056 16 242 6.4 17.7 0.00 0.00 0.00 71 1007.2
20260505071554 16 224 8.0 17.7 0.00 0.00 0.00 71 1007.1
20260505071056 16 234 4.8 16.1 0.00 0.00 0.00 71 1007.0
20260505070558 16 229 6.4 16.1 0.00 0.00 0.00 71 1007.1
20260505070054 16 235 8.0 16.1 0.00 0.00 0.00 70 1007.2
20260505065555 16 231 6.4 16.1 0.00 0.00 0.00 70 1007.0
20260505065055 16 265 3.2 16.1 0.00 0.00 0.00 70 1007.0
20260505064601 16 227 9.7 16.1 0.00 0.00 0.00 69 1007.0
20260505064056 16 225 4.8 11.3 0.00 0.00 0.00 69 1007.1
20260505063556 16 220 6.4 12.9 0.00 0.00 0.00 68 1006.9
20260505063102 16 227 8.0 12.9 0.00 0.00 0.00 68 1006.9
20260505062557 16 213 4.8 12.9 0.00 0.00 0.00 67 1007.0
20260505062056 16 288 4.8 14.5 0.00 0.00 0.00 67 1006.9
20260505061558 16 212 6.4 14.5 0.00 0.00 0.00 66 1007.0
20260505061057 16 179 4.8 11.3 0.00 0.00 0.00 66 1007.1
20260505060556 16 236 4.8 11.3 0.00 0.00 0.00 66 1007.0
20260505060059 17 0 3.2 9.7 0.00 0.00 0.00 66 1007.1
20260505055600 17 209 3.2 12.9 0.00 0.00 0.00 65 1007.0
20260505055100 17 235 6.4 12.9 0.00 0.00 0.00 65 1007.0
20260505054557 17 216 4.8 12.9 0.00 0.00 0.00 64 1007.2
20260505054057 17 234 6.4 12.9 0.00 0.00 0.00 64 1007.1
20260505053556 17 197 4.8 12.9 0.00 0.00 0.00 64 1007.1
20260505053115 17 200 6.4 12.9 0.00 0.00 0.00 63 1007.1
20260505052556 17 210 6.4 12.9 0.00 0.00 0.00 63 1007.1
20260505052056 17 214 4.8 14.5 0.00 0.00 0.00 62 1007.2
20260505051555 17 233 4.8 14.5 0.00 0.00 0.00 62 1007.2
20260505051053 17 231 6.4 16.1 0.00 0.00 0.00 62 1007.2
20260505050557 17 238 6.4 16.1 0.00 0.00 0.00 62 1007.2
20260505050107 17 237 6.4 12.9 0.00 0.00 0.00 62 1007.1
20260505041557 17 207 1.6 9.7 0.00 0.00 0.00 63 1007.1
20260505041054 17 161 3.2 12.9 0.00 0.00 0.00 63 1007.2
20260505040556 17 213 4.8 16.1 0.00 0.00 0.00 63 1007.1
20260505040058 17 0 6.4 16.1 0.00 0.00 0.00 63 1007.2
20260505035555 17 173 4.8 11.3 0.00 0.00 0.00 63 1007.1
20260505035054 17 205 3.2 19.3 0.00 0.00 0.00 63 1007.3
20260505034613 17 209 4.8 19.3 0.00 0.00 0.00 62 1007.3
20260505034057 17 174 1.6 12.9 0.00 0.00 0.00 62 1007.3
20260505033555 17 0 4.8 12.9 0.00 0.00 0.00 62 1007.2
20260505033057 17 200 4.8 12.9 0.00 0.00 0.00 62 1007.3
20260505032555 17 225 4.8 14.5 0.00 0.00 0.00 61 1007.3
20260505032057 17 251 3.2 16.1 0.00 0.00 0.00 61 1007.2
20260505031556 17 0 4.8 16.1 0.00 0.00 0.00 60 1007.2
20260505031052 17 234 1.6 12.9 0.00 0.00 0.00 59 1007.2
20260505030555 17 183 1.6 12.9 0.00 0.00 0.00 58 1007.0
20260505030058 17 204 4.8 12.9 0.00 0.00 0.00 58 1007.3
20260505025552 17 0 3.2 12.9 0.00 0.00 0.00 56 1007.3
20260505025056 17 215 4.8 12.9 0.00 0.00 0.00 55 1007.3
20260505024559 17 254 3.2 12.9 0.00 0.00 0.00 54 1007.4
20260505024055 17 209 4.8 12.9 0.00 0.00 0.00 54 1007.5
20260505023557 18 0 1.6 12.9 0.00 0.00 0.00 53 1007.5
20260505023101 18 0 3.2 12.9 0.00 0.00 0.00 52 1007.5
20260505022555 18 265 4.8 11.3 0.00 0.00 0.00 52 1007.5
20260505022055 18 167 1.6 12.9 0.00 0.00 0.00 51 1007.4
20260505021559 18 189 0.0 12.9 0.00 0.00 0.00 50 1007.3
20260505021054 18 186 1.6 11.3 0.00 0.00 0.00 49 1007.4
20260505020554 18 141 1.6 14.5 0.00 0.00 0.00 48 1007.4
20260505020100 19 177 0.0 17.7 0.00 0.00 0.00 48 1007.3
20260505015554 19 199 3.2 19.3 0.00 0.00 0.00 47 1007.3
20260505015056 19 0 3.2 19.3 0.00 0.00 0.00 47 1007.2
20260505014600 19 214 4.8 17.7 0.00 0.00 0.00 47 1007.2
20260505014055 19 180 4.8 17.7 0.00 0.00 0.00 47 1007.2
20260505013555 19 218 3.2 12.9 0.00 0.00 0.00 47 1007.2
20260505013105 19 207 4.8 12.9 0.00 0.00 0.00 48 1007.2
20260505012552 19 197 1.6 16.1 0.00 0.00 0.00 48 1007.1
20260505012055 20 208 4.8 16.1 0.00 0.00 0.00 47 1007.1
20260505011612 20 0 3.2 14.5 0.00 0.00 0.00 47 1007.0
20260505011058 20 219 4.8 16.1 0.00 0.00 0.00 47 1007.2
20260505010555 20 197 6.4 16.1 0.00 0.00 0.00 46 1007.1
20260505010057 20 190 4.8 16.1 0.00 0.00 0.00 46 1007.0
20260505005554 20 214 4.8 17.7 0.00 0.00 0.00 46 1007.0
20260505005055 20 225 6.4 17.7 0.00 0.00 0.00 45 1007.0
20260505004607 20 194 3.2 16.1 0.00 0.00 0.00 45 1006.8
20260505004054 20 203 6.4 16.1 0.00 0.00 0.00 44 1006.8
20260505003552 20 209 6.4 14.5 0.00 0.00 0.00 44 1006.8
20260505003057 21 186 4.8 14.5 0.00 0.00 0.00 43 1006.8
20260505002554 21 157 6.4 12.9 0.00 0.00 0.00 43 1006.7
20260505002052 21 232 3.2 17.7 0.00 0.00 0.00 43 1006.7
20260505001606 21 197 4.8 17.7 0.00 0.00 0.00 43 1006.6
20260505001054 21 226 4.8 14.5 0.00 0.00 0.00 42 1006.6
20260505000554 21 229 3.2 16.1 0.00 0.00 0.00 42 1006.6
20260505000109 21 249 1.6 16.1 0.00 0.00 0.00 42 1006.6
20260504235555 21 242 3.2 16.1 0.00 0.00 0.00 41 1006.5
20260504235056 21 232 6.4 16.1 0.00 0.00 0.00 41 1006.6
20260504234557 21 224 1.6 16.1 0.00 0.00 0.00 40 1006.5
20260504234053 21 178 3.2 22.5 0.00 0.00 0.00 40 1006.5
20260504233555 21 219 8.0 22.5 0.00 0.00 0.00 39 1006.5
20260504233111 22 233 11.3 22.5 0.00 0.00 0.00 39 1006.4
20260504232555 22 234 9.7 24.1 0.00 0.00 0.00 39 1006.4
20260504232054 22 212 12.9 24.1 0.00 0.00 0.00 39 1006.4
20260504231559 22 0 11.3 22.5 0.00 0.00 0.00 38 1006.3
20260504231054 22 224 9.7 20.9 0.00 0.00 0.00 38 1006.4
20260504230556 22 217 8.0 20.9 0.00 0.00 0.00 38 1006.4
20260504230059 22 223 11.3 19.3 0.00 0.00 0.00 37 1006.4
20260504225556 22 191 9.7 19.3 0.00 0.00 0.00 37 1006.4
20260504225054 22 216 6.4 19.3 0.00 0.00 0.00 37 1006.3
20260504224555 22 211 9.7 19.3 0.00 0.00 0.00 36 1006.4
20260504224051 22 296 8.0 19.3 0.00 0.00 0.00 36 1006.4
20260504223554 22 263 6.4 22.5 0.00 0.00 0.00 36 1006.5
20260504223054 22 268 6.4 24.1 0.00 0.00 0.00 36 1006.4
20260504222556 22 222 9.7 24.1 0.00 0.00 0.00 36 1006.3
20260504222053 22 296 12.9 22.5 0.00 0.00 0.00 36 1006.3
20260504221555 22 180 11.3 22.5 0.00 0.00 0.00 36 1006.4
20260504221057 22 236 11.3 22.5 0.00 0.00 0.00 36 1006.5
20260504220554 22 232 11.3 22.5 0.00 0.00 0.00 36 1006.4
20260504220058 22 185 8.0 17.7 0.00 0.00 0.00 35 1006.4
20260504215555 22 273 4.8 25.7 0.00 0.00 0.00 35 1006.4
20260504215053 22 225 11.3 25.7 0.00 0.00 0.00 35 1006.4
20260504214600 22 276 11.3 27.4 0.00 0.00 0.00 35 1006.4
20260504214054 22 175 11.3 29.0 0.00 0.00 0.00 35 1006.4
20260504213554 22 244 14.5 29.0 0.00 0.00 0.00 35 1006.5
20260504213054 22 223 14.5 27.4 0.00 0.00 0.00 35 1006.5
20260504212555 22 165 12.9 29.0 0.00 0.00 0.00 34 1006.4
20260504212055 22 258 14.5 29.0 0.00 0.00 0.00 35 1006.5
20260504211554 22 224 11.3 24.1 0.00 0.00 0.00 35 1006.5
20260504211054 22 214 16.1 27.4 0.00 0.00 0.00 34 1006.5
20260504210557 22 246 9.7 32.2 0.00 0.00 0.00 34 1006.5
20260504210058 22 260 14.5 32.2 0.00 0.00 0.00 35 1006.5
20260504205554 22 212 11.3 30.6 0.00 0.00 0.00 34 1006.4
20260504205054 22 215 17.7 30.6 0.00 0.00 0.00 34 1006.5
20260504204557 22 227 12.9 30.6 0.00 0.00 0.00 34 1006.6
20260504204052 22 288 12.9 29.0 0.00 0.00 0.00 34 1006.6
20260504203554 22 246 12.9 29.0 0.00 0.00 0.00 35 1006.5
20260504203059 22 288 16.1 32.2 0.00 0.00 0.00 34 1006.7
20260504202555 22 242 14.5 33.8 0.00 0.00 0.00 34 1006.5
20260504202058 22 269 12.9 33.8 0.00 0.00 0.00 35 1006.5
20260504201557 22 219 16.1 32.2 0.00 0.00 0.00 34 1006.5
20260504201054 22 227 11.3 30.6 0.00 0.00 0.00 34 1006.6
20260504200554 22 283 9.7 29.0 0.00 0.00 0.00 35 1006.6
20260504200101 22 203 9.7 29.0 0.00 0.00 0.00 35 1006.7
20260504195554 22 246 16.1 29.0 0.00 0.00 0.00 34 1006.6
20260504195054 22 196 8.0 24.1 0.00 0.00 0.00 34 1006.7
20260504194602 22 248 14.5 24.1 0.00 0.00 0.00 34 1006.8
20260504194054 22 328 9.7 25.7 0.00 0.00 0.00 34 1006.9
20260504193553 22 198 11.3 32.2 0.00 0.00 0.00 35 1006.9
20260504193056 22 223 14.5 32.2 0.00 0.00 0.00 34 1006.9
20260504192555 22 230 9.7 30.6 0.00 0.00 0.00 34 1007.1
20260504192055 22 225 16.1 30.6 0.00 0.00 0.00 34 1007.2
20260504191613 22 238 11.3 25.7 0.00 0.00 0.00 34 1007.1
20260504191055 22 208 9.7 27.4 0.00 0.00 0.00 34 1007.3
20260504190556 21 202 12.9 29.0 0.00 0.00 0.00 34 1007.3
20260504190054 21 188 16.1 29.0 0.00 0.00 0.00 34 1007.5
20260504185554 21 217 14.5 32.2 0.00 0.00 0.00 33 1007.4
20260504185054 21 214 11.3 32.2 0.00 0.00 0.00 34 1007.5
20260504184554 21 222 14.5 32.2 0.00 0.00 0.00 34 1007.6
20260504184056 21 330 9.7 30.6 0.00 0.00 0.00 34 1007.8
20260504183554 21 250 6.4 29.0 0.00 0.00 0.00 34 1007.7
20260504183054 21 215 16.1 30.6 0.00 0.00 0.00 34 1008.0
20260504182557 21 226 14.5 30.6 0.00 0.00 0.00 34 1008.0
20260504182056 21 224 16.1 30.6 0.00 0.00 0.00 34 1008.1
20260504181558 21 189 12.9 29.0 0.00 0.00 0.00 34 1008.2
20260504181054 21 222 11.3 24.1 0.00 0.00 0.00 34 1008.2
20260504180556 21 188 11.3 29.0 0.00 0.00 0.00 34 1008.3
20260504180055 21 166 6.4 29.0 0.00 0.00 0.00 34 1008.3
20260504175554 21 197 14.5 24.1 0.00 0.00 0.00 34 1008.5
20260504175055 21 242 12.9 25.7 0.00 0.00 0.00 34 1008.4
20260504174555 21 220 12.9 27.4 0.00 0.00 0.00 34 1008.5
20260504174055 21 213 11.3 27.4 0.00 0.00 0.00 33 1008.5
20260504173555 20 213 8.0 25.7 0.00 0.00 0.00 35 1008.5
20260504173054 20 218 12.9 25.7 0.00 0.00 0.00 35 1008.6
20260504172555 20 194 8.0 29.0 0.00 0.00 0.00 36 1008.6
20260504172054 20 240 16.1 29.0 0.00 0.00 0.00 35 1008.8
20260504171555 20 217 9.7 27.4 0.00 0.00 0.00 35 1008.8
20260504171055 20 279 12.9 27.4 0.00 0.00 0.00 35 1008.9
20260504170554 20 203 9.7 27.4 0.00 0.00 0.00 35 1008.9
20260504151056 17 267 8.0 27.4 0.00 0.00 0.00 45 1010.1
20260504150555 17 228 9.7 25.7 0.00 0.00 0.00 46 1010.2
20260504141051 16 203 9.7 22.5 0.00 0.00 0.00 55 1010.3
20260504140551 16 242 9.7 24.1 0.00 0.00 0.00 55 1010.4
20260504130555 13 219 8.0 22.5 0.00 0.00 0.00 66 1010.8
20260504120106 12 190 6.4 14.5 0.00 0.00 0.00 74 1011.1
20260504110555 11 205 4.8 14.5 0.00 0.00 0.00 76 1011.3
20260504100557 10 216 3.2 14.5 0.00 0.00 0.00 74 1011.5